This demonstration page uses our WeatherBlox Daily Observations layout. Learn more.

Left ArrowRight Arrow

Hourly Observations for October 30, 2015

Temp ( °F °C ) Dew Point ( °F °C ) Humidity (%) Winds ( mph kmh ) Pressure ( in mb ) Visibility ( mi km ) Precip ( " mm )
12:53 am 00:53 Clear 59 15 40 4.4 49 49 NNW 3 6 30.04 1017 10 16 0.00 0.00
1:53 am 01:53 Clear 55 12.8 40 4.4 57 57 NW 5 7 30.04 1017 10 16 0.00 0.00
2:53 am 02:53 Clear 52 11.1 40 4.4 64 64 N 3 6 30.04 1017 10 16 0.00 0.00
3:53 am 03:53 Clear 57 13.9 40 4.4 53 53 N 7 11 30.03 1017 10 16 0.00 0.00
4:53 am 04:53 Clear 59 15 39 3.9 48 48 N 6 9 30.02 1017 10 16 0.00 0.00
5:53 am 05:53 Clear 61 16.1 40 4.4 46 46 N 8 13 30.02 1017 10 16 0.00 0.00
6:53 am 06:53 Clear 57 13.9 40 4.4 53 53 WNW 6 9 30.04 1017 10 16 0.00 0.00
7:53 am 07:53 Sunny 50 10 39 3.9 66 66 Calm 30.04 1017 10 16 0.00 0.00
8:53 am 08:53 Sunny 54 12.2 40 4.4 59 59 Calm 30.06 1018 10 16 0.00 0.00
9:53 am 09:53 Sunny 65 18.3 42 5.6 43 43 N 5 7 30.05 1018 10 16 0.00 0.00
10:53 am 10:53 Sunny 72 22.2 39 3.9 30 30 NNE 5 7 30.04 1017 10 16 0.00 0.00
11:53 am 11:53 Sunny 76 24.4 37 2.8 24 24 VRB 3 6 30.03 1017 10 16 0.00 0.00
12:53 pm 12:53 Hazy 79 26.1 37 2.8 22 22 SW 3 6 30.02 1017 6 10 0.00 0.00
1:53 pm 13:53 Sunny 81 27.2 40 4.4 23 23 S 5 7 29.98 1015 10 16 0.00 0.00
2:53 pm 14:53 Sunny 83 28.3 41 5 23 23 SSW 3 6 29.95 1014 10 16 0.00 0.00
3:53 pm 15:53 Sunny 85 29.4 41 5 21 21 SSW 3 6 29.94 1014 10 16 0.00 0.00
4:53 pm 16:53 Sunny 85 29.4 43 6.1 23 23 SSE 7 11 29.94 1014 10 16 0.00 0.00
5:53 pm 17:53 Sunny 81 27.2 45 7.2 28 28 Calm 29.93 1014 10 16 0.00 0.00
6:53 pm 18:53 Clear 73 22.8 46 7.8 38 38 Calm 29.95 1014 10 16 0.00 0.00
7:53 pm 19:53 Clear 68 20 47 8.3 47 47 Calm 29.97 1015 10 16 0.00 0.00
8:53 pm 20:53 Clear 67 19.4 46 7.8 47 47 N 3 6 29.97 1015 10 16 0.00 0.00
9:53 pm 21:53 Clear 63 17.2 47 8.3 56 56 Calm 29.98 1015 10 16 0.00 0.00
10:53 pm 22:53 Clear 60 15.6 46 7.8 60 60 Calm 30.00 1016 10 16 0.00 0.00
11:53 pm 23:53 Clear 59 15 46 7.8 62 62 N 3 6 30.00 1016 10 16 0.00 0.00

Powered by AerisWeather